Ellensburg, WA

9:09 AM PST on January 23, 2017 (GMT -0800)
Bowers

Weather History for KELN - February, 2014

Change the Weather History Date:

Sunday, February 23, 2014

  Actual Average (KYKM) Record (KYKM)
Temperature  
Mean Temperature 34 °F -  
Max Temperature 37 °F 50 °F 69 °F (1947)
Min Temperature 32 °F 28 °F 16 °F (1993)
Degree Days  
Heating Degree Days 30    
Moisture  
Dew Point 29 °F    
Average Humidity 82    
Maximum Humidity 89    
Minimum Humidity 70    
Precipitation  
Precipitation 0.02 in - - ()
Sea Level Pressure  
Sea Level Pressure 29.99 in    
Wind  
Wind Speed 5 mph (ESE)    
Max Wind Speed 8 mph    
Max Gust Speed -    
Visibility 4 miles    
Events Snow    
Averages and records for this station are not official NWS values.
T = Trace of Precipitation, MM = Missing Value Source: NWS Daily Summary

Daily Weather History Graph

Daily Weather History Graph

Search for Another Location

Airport or City:

Trip Planner

Search our weather history database for the weather conditions in past years. The results will help you decide how hot, cold, wet, or windy it might be!

Date:

Astronomy

Feb. 23, 2014 Rise Set
Actual Time 6:52 AM PST 5:38 PM PST
Civil Twilight 6:21 AM PST 6:09 PM PST
Nautical Twilight 5:46 AM PST 6:45 PM PST
Astronomical Twilight 5:11 AM PST 7:20 PM PST
Moon 2:07 AM PST 11:34 AM PST
Length of Visible Light 11h 47m
Length of Day
10h 46m
Last Quarter, 38% of the Moon is Illuminated
Feb 23
Last Quarter
Mar 1
New
Mar 8
First Quarter
Mar 16
Full
Mar 23
Last Quarter

Hourly Weather History & Observations

Time (PST) Temp. Windchill Dew Point Humidity Pressure Visibility Wind Dir Wind Speed Gust Speed Precip Events Conditions
12:11 AM 32.0 °F 26.4 °F 28.0 °F 85% 30.00 in 2.0 mi East 5.8 mph - 0.00 in Snow Light Snow
12:53 AM 32.0 °F 27.5 °F 28.0 °F 85% 30.05 in 3.0 mi East 4.6 mph - 0.00 in Snow Light Snow
1:03 AM 32.0 °F 26.4 °F 28.0 °F 85% 30.00 in 4.0 mi East 5.8 mph - 0.00 in Snow Light Snow
1:11 AM 32.0 °F 27.5 °F 28.0 °F 85% 30.00 in 5.0 mi ESE 4.6 mph - 0.00 in Snow Light Snow
1:24 AM 32.0 °F 27.5 °F 28.0 °F 85% 30.00 in 6.0 mi East 4.6 mph - 0.00 in Snow Light Snow
2:53 AM 32.0 °F 26.4 °F 27.0 °F 82% 30.04 in 4.0 mi East 5.8 mph - 0.00 in Snow Light Snow
3:53 AM 32.0 °F 27.5 °F 27.0 °F 82% 30.04 in 5.0 mi East 4.6 mph - 0.00 in Snow Light Snow
4:53 AM 32.0 °F 28.7 °F 27.0 °F 82% 30.03 in 4.0 mi ESE 3.5 mph - 0.00 in Snow Light Snow
5:53 AM 32.0 °F 28.7 °F 27.0 °F 82% 30.02 in 10.0 mi East 3.5 mph - 0.00 in   Overcast
6:53 AM 32.0 °F 27.5 °F 27.0 °F 82% 30.02 in 10.0 mi ESE 4.6 mph - N/A   Overcast
7:53 AM 32.0 °F 25.6 °F 27.0 °F 82% 30.03 in 7.0 mi East 6.9 mph - N/A   Overcast
8:53 AM 33.1 °F 28.7 °F 27.0 °F 78% 30.03 in 5.0 mi ESE 4.6 mph - N/A   Haze
9:50 AM 33.8 °F 27.0 °F 28.4 °F 81% 29.97 in 10.0 mi SE 8.1 mph - N/A   Overcast
9:53 AM 34.0 °F 28.0 °F 28.0 °F 79% 30.02 in 10.0 mi SE 6.9 mph - N/A   Overcast
10:53 AM 36.0 °F 30.3 °F 28.9 °F 76% 30.02 in 10.0 mi SSE 6.9 mph - N/A   Overcast
11:53 AM 36.0 °F 30.3 °F 28.0 °F 73% 30.01 in 10.0 mi SSE 6.9 mph - N/A   Overcast
12:53 PM 37.0 °F 34.5 °F 28.0 °F 70% 29.99 in 10.0 mi SE 3.5 mph - N/A   Overcast
1:53 PM 37.0 °F 33.3 °F 28.0 °F 70% 29.98 in 3.0 mi SSE 4.6 mph - 0.00 in Snow Light Snow
2:22 PM 36.0 °F 32.1 °F 28.0 °F 73% 29.93 in 2.0 mi SE 4.6 mph - 0.00 in Snow Light Snow
2:31 PM 36.0 °F 31.1 °F 28.9 °F 76% 29.93 in 1.5 mi ESE 5.8 mph - 0.00 in Snow Light Snow
2:41 PM 35.1 °F 30.1 °F 28.9 °F 78% 29.93 in 0.8 mi ESE 5.8 mph - 0.00 in Snow Light Snow
2:53 PM 35.1 °F 29.3 °F 28.9 °F 78% 29.98 in 0.8 mi ESE 6.9 mph - 0.00 in Snow Light Snow
3:27 PM 34.0 °F 28.8 °F 30.0 °F 85% 29.93 in 1.0 mi East 5.8 mph - 0.01 in Snow Light Snow
3:37 PM 34.0 °F 28.8 °F 30.0 °F 85% 29.93 in 1.2 mi East 5.8 mph - 0.01 in Snow Light Snow
3:53 PM 34.0 °F 28.0 °F 30.0 °F 85% 29.98 in 1.2 mi East 6.9 mph - 0.01 in Snow Light Snow
4:00 PM 34.0 °F 28.0 °F 30.0 °F 85% 29.93 in 0.8 mi East 6.9 mph - 0.01 in Snow Light Snow
4:13 PM 34.0 °F 28.0 °F 30.0 °F 85% 29.93 in 1.0 mi East 6.9 mph - 0.01 in Snow Light Snow
4:18 PM 34.0 °F 28.8 °F 30.0 °F 85% 29.93 in 1.2 mi ESE 5.8 mph - 0.01 in Snow Light Snow
4:53 PM 34.0 °F 28.0 °F 30.0 °F 85% 29.98 in 1.8 mi East 6.9 mph - 0.01 in Snow Light Snow
5:01 PM 34.0 °F 28.8 °F 30.0 °F 85% 29.94 in 1.0 mi East 5.8 mph - 0.00 in Snow Light Snow
5:11 PM 34.0 °F 28.8 °F 30.0 °F 85% 29.94 in 0.8 mi ESE 5.8 mph - 0.00 in Snow Light Snow
5:19 PM 34.0 °F 29.8 °F 30.0 °F 85% 29.94 in 1.0 mi ESE 4.6 mph - 0.00 in Snow Light Snow
5:53 PM 33.1 °F 27.7 °F 30.0 °F 89% 29.99 in 1.5 mi ESE 5.8 mph - 0.00 in Snow Light Snow
6:31 PM 33.1 °F 27.7 °F 28.9 °F 85% 29.95 in 3.0 mi SE 5.8 mph - 0.00 in Snow Light Snow
6:41 PM 33.1 °F 27.7 °F 28.9 °F 85% 29.95 in 2.5 mi ESE 5.8 mph - 0.00 in Snow Light Snow
6:49 PM 33.8 °F 29.6 °F 28.4 °F 81% 29.96 in 2.0 mi ESE 4.6 mph - 0.00 in Snow Light Snow
6:53 PM 33.1 °F 28.7 °F 28.9 °F 85% 30.01 in 1.8 mi ESE 4.6 mph - 0.00 in Snow Light Snow
6:59 PM 33.1 °F 30.0 °F 28.9 °F 85% 29.96 in 2.0 mi ESE 3.5 mph - 0.00 in Snow Light Snow
7:53 PM 33.1 °F 27.7 °F 28.9 °F 85% 30.01 in 2.5 mi ESE 5.8 mph - 0.00 in Snow Light Snow
8:18 PM 33.1 °F 28.7 °F 28.9 °F 85% 29.97 in 3.0 mi ESE 4.6 mph - 0.00 in Snow Light Snow
8:53 PM 32.0 °F 27.5 °F 28.9 °F 88% 30.03 in 4.0 mi SE 4.6 mph - 0.00 in Snow Light Snow
9:42 PM 32.0 °F 26.4 °F 28.0 °F 85% 30.00 in 5.0 mi SE 5.8 mph - 0.00 in Snow Light Snow
9:53 PM 32.0 °F 27.5 °F 28.0 °F 85% 30.05 in 7.0 mi SSE 4.6 mph - 0.00 in Snow Light Snow
10:53 PM 32.0 °F 28.7 °F 28.0 °F 85% 30.07 in 10.0 mi SSE 3.5 mph - 0.00 in   Overcast
11:53 PM 32.0 °F - 28.0 °F 85% 30.09 in 8.0 mi Calm Calm - N/A   Overcast